ONEWEB-0705, 61610

Orbit data source: Space-Track

ONEWEB-0705, 61610 is a payload satellite owned by Eut. One Web (UK) in LEO that was launched on Sun, 20 Oct 2024 UTC via an FALCON 9 launch vehicle from the Air Force Western Test Range (AFWTR). Payload-class satellites include a variety of spacecraft equipped with specific instruments for various scientific and technological missions. These include communications satellites like Starlink; space stations such as the ISS; scientific satellites like the Hubble; Earth observation satellites from companies like Planet Labs, Umbra, and HawkEye 360; GPS; miniature CubeSats for education and research; and military/defense satellites.

Loading next visibility...
Identifier
61610, 2024-188S
Orbit
LEO
Country
Flag of UKUK
Related business
Manufacturer
One Web
Mission
Operational Commercial Communications
Bus & Motor
ARROW, Unknown motor
Mass
148 kg wet, ~140 kg dry
Launch date (UTC)
2024-10-20 (1 year ago)
Launch vehicle
FALCON 9
Launch site
Air Force Western Test Range (AFWTR)
Object type
Payload
Rocket body
Debris
Shape & HBR
Trap Box + 2 Pan, 6.7 m
Radar Cross Section
3.464 m², Large (>1 m²)

Expand to show TLE details & history
Last TLE update: 9 hours ago

TLE from 9 hours ago
0 ONEWEB-0705
1 61610U 24188S   25299.64954453 -.00000382  00000-0 -11303-2 0  9999
2 61610  87.8773  82.8012 0002338  66.8611 293.2762 13.10371931 44874
Epoch: 2025-10-26T15:35Z
TLE epoch observation values (Epoch: 2025-10-26T15:35:20.647Z)
Latitude
-0.00007°
Longitude
173.70246°
Altitude
1,223.906 km
Speed
7.243 km/s
True Right ascension
05h 31m 12s
True Declination
0° 00' 00"
Sunlit
Object was in full shadow at epoch
Visualization orbit readout
Latitude
Unknown
Longitude
Unknown
Altitude
Unknown
Speed
Unknown
Apparent Right ascension
Unknown
Apparent Declination
Unknown
Sunlit
N/A
Visualization observer readout
Local Sidereal Time
20:23:50
Azimuth
Unknown
Elevation
Unknown
Doppler factor
Unknown
Orbital elements
Apogee altitude
1,220.617 km
Perigee altitude
1,217.064 km
Semi-major axis
7,596.977 km
Eccentricity
0.00023
Inclination
87.8773°
RAAN
82.8012°
Arg. of periapsis
66.8611°
True anomaly
293.25159°
Mean anomaly
293.2762°
Eccentric anomaly
293.26389°
Mean motion
3.2778 °/min
Orbital period
109.83 mins
BSTAR
-0.0011303
Loading maneuver chart data...
Computing Atmospheric mass density...
Loading historical data...
Loading historical data...
Loading historical data...
Loading historical data...
Loading historical data...
Loading historical data...
Loading historical data...

Documentation

Showing up to 5 results
|